Temp
40 35 28 30 32 34 33 33 31 34 35 34 33 33 36 36 35 33 34 35 35 36 39 38 38 38 37 37 37 38 38 38 39 38 38 39 38 39 41 41 41 41 41 41
34 30 33 34 35 35 35 33 32 35 35 34 30 32 37 34 33 33 33 33 34 35 36 37 37 36 35 35 35 36 37 38 38 37 37 37 37 38 39 40 40 40 39 39
34 32 36 36 34 35 31 32 29 30 32 30 26 32 32 33 34 33 33 33 34 34 34 35 35 34 34 34 33 35 36 37 37 37 37 37 38 38 38 37 37 38 38 38
33 35 35 34 33 32 34 32 32 30 26 23 27 24 32 29 30 31 32 30 31 32 34 34 34 34 34 34 34 34 35 36 38 36 35 33 32 31 35 35 36 36 37 37
34 32 33 34 34 34 32 32 30 29 20 21 24 18 31 28 30 29 30 30 29 31 31 33 34 34 35 34 34 34 34 35 35 35 34 33 32 33 34 34 33 34 35 36
33 33 32 32 34 33 33 29 28 24 19 17 12 17 29 33 32 32 31 30 31 30 30 32 33 34 33 34 34 33 34 34 35 34 33 32 31 31 31 31 31 32 33 34
33 32 31 33 32 33 31 23 18 20 17 22 3 15 31 33 32 32 32 30 30 30 30 30 30 31 32 33 33 33 33 33 34 33 32 32 32 31 30 31 30 30 31 31
21 27 28 32 30 29 27 22 19 14 16 20 5 18 33 32 29 29 30 30 30 29 30 30 30 31 31 32 32 32 32 32 32 32 32 32 32 31 31 31 31 30 30 30
21 28 29 32 31 29 29 20 25 10 -4 7 17 25 34 30 27 28 29 29 28 28 29 29 30 29 29 30 30 30 30 31 31 31 31 30 30 31 30 30 31 30 31 31
26 22 23 30 30 29 27 29 21 17 15 14 16 10 29 26 24 23 27 27 28 28 28 29 29 29 29 29 29 29 30 29 29 30 30 30 30 30 30 30 29 29 30 29
25 20 26 28 21 21 21 18 19 20 19 14 10 20 25 24 19 19 20 27 23 23 27 27 26 27 28 28 27 28 28 28 28 29 29 28 28 29 29 29 29 28 29 28
29 27 17 26 24 26 27 23 26 20 16 12 13 23 23 16 10 9 20 24 24 16 21 21 24 25 26 26 25 26 26 26 28 27 27 27 27 27 27 27 27 28 27 28
31 18 14 25 24 25 22 26 24 16 21 13 14 27 18 12 13 15 16 20 17 17 17 19 22 23 24 24 24 23 24 25 26 25 25 25 25 24 24 25 25 26 26 26
36 27 23 24 25 18 20 24 23 21 9 21 24 31 37 37 22 21 19 18 13 14 14 16 17 18 21 20 19 21 22 23 23 24 23 22 22 23 23 24 24 24 24 24
29 16 19 19 19 14 23 24 20 20 27 20 31 25 33 36 28 20 13 11 14 13 14 15 15 14 14 14 15 16 15 19 21 20 18 19 21 22 22 21 22 22 22 23
27 15 11 13 22 22 19 24 24 22 23 21 25 24 33 33 10 10 15 8 11 11 12 13 13 12 12 12 12 15 14 14 16 14 15 16 17 18 17 18 19 18 18 20
18 12 9 12 11 13 19 19 21 17 16 18 18 28 14 18 15 13 14 9 9 8 6 11 11 11 10 10 9 10 12 12 11 12 13 14 14 14 14 13 13 12 14 15
11 10 5 11 10 12 32 23 24 23 25 19 22 27 18 16 15 13 10 11 11 10 10 12 9 8 10 6 9 9 10 10 10 11 12 12 12 10 10 9 9 8 10 10
25 17 12 7 -4 21 31 22 22 22 25 30 27 25 19 18 19 20 21 20 16 15 14 10 9 7 9 13 13 11 13 11 11 10 10 11 9 7 7 6 6 7 8 9
20 17 16 -2 6 14 28 23 25 26 21 24 26 24 24 22 18 18 20 22 21 21 21 20 21 20 19 19 18 16 12 11 11 10 11 9 8 6 5 5 6 7 8 9
15 17 13 4 8 16 30 28 28 24 29 25 26 25 23 21 20 20 21 20 21 20 19 20 19 17 17 17 16 13 12 10 11 12 10 8 7 5 6 6 6 6 5 6
21 16 11 10 13 16 28 26 29 33 27 27 26 25 23 21 21 19 18 18 18 16 17 18 16 15 16 16 13 11 9 11 11 8 6 5 5 6 7 5 5 5 5 5
23 30 23 25 26 30 29 31 30 30 28 26 25 23 21 20 18 17 15 15 15 15 15 15 12 12 13 13 12 8 8 8 6 3 2 3 4 6 6 4 3 3 4 5
25 29 26 28 36 34 36 33 30 29 27 26 24 22 20 18 17 15 14 14 13 12 11 10 7 8 8 9 9 7 6 5 2 0 1 2 2 2 3 4 4 3 3 4
29 28 27 26 33 34 31 29 28 26 23 20 19 19 18 18 16 15 13 12 11 11 9 7 6 6 5 6 5 3 4 2 1 0 1 1 2 0 1 2 3 4 6 8
29 32 29 31 35 35 30 27 26 22 20 19 17 14 15 15 14 13 11 11 9 7 8 7 7 5 5 4 3 3 3 2 -1 -1 -0 0 -0 -1 -0 -0 0 7 9 11
MSLP
1024.71 1026.03 1028.40 1028.84 1028.42 1027.78 1027.50 1027.50 1027.68 1027.30 1027.72 1027.85 1027.14 1026.52 1026.23 1027.00 1027.56 1028.11 1028.76 1029.01 1028.96 1029.09 1029.51 1029.89 1029.98 1030.05 1029.97 1029.80 1029.57 1029.28 1028.89 1028.55 1028.16 1027.48 1026.91 1026.33 1026.08 1025.80 1025.53 1025.28 1025.06 1024.78 1024.47 1024.05
1026.22 1028.27 1029.11 1028.98 1028.54 1028.19 1027.92 1028.00 1028.10 1027.61 1028.18 1028.68 1027.96 1026.37 1025.39 1026.00 1026.75 1027.44 1027.84 1028.40 1028.85 1029.23 1029.60 1030.00 1030.20 1030.26 1030.12 1029.91 1029.50 1029.17 1028.92 1028.60 1028.31 1028.05 1027.84 1027.56 1026.95 1026.16 1025.88 1025.55 1025.13 1024.84 1024.55 1024.12
1028.08 1029.38 1029.07 1028.92 1028.97 1028.73 1028.73 1028.85 1029.25 1029.78 1029.25 1029.39 1029.28 1026.78 1025.49 1025.91 1026.60 1027.37 1028.08 1028.70 1029.19 1029.57 1029.89 1030.04 1030.05 1029.94 1029.80 1029.74 1029.69 1029.46 1029.12 1028.78 1028.45 1028.28 1027.97 1027.56 1026.96 1026.52 1025.87 1025.56 1025.19 1024.84 1024.49 1024.11
1029.40 1029.54 1029.42 1029.39 1029.48 1029.54 1029.53 1029.78 1030.15 1030.61 1031.21 1031.32 1030.63 1028.83 1026.22 1026.29 1026.87 1027.41 1028.11 1028.59 1029.28 1029.53 1029.66 1029.81 1029.75 1029.93 1030.06 1029.84 1029.66 1029.36 1029.08 1028.73 1028.33 1028.32 1027.99 1027.62 1027.28 1026.77 1026.26 1025.78 1025.15 1024.76 1024.38 1023.82
1029.91 1029.78 1029.65 1029.68 1029.85 1030.11 1030.57 1030.57 1030.96 1031.65 1032.34 1032.77 1031.98 1031.41 1026.11 1026.24 1026.22 1026.50 1027.11 1027.96 1028.49 1028.83 1029.07 1029.17 1029.31 1029.33 1029.34 1029.39 1029.29 1029.11 1028.88 1028.65 1028.38 1028.07 1027.84 1027.61 1027.17 1026.67 1026.07 1025.53 1024.84 1024.51 1024.12 1023.66
1029.79 1030.11 1030.38 1030.61 1030.55 1030.59 1030.96 1031.25 1031.76 1032.41 1032.99 1033.92 1033.28 1032.43 1027.07 1025.96 1025.68 1026.05 1026.60 1027.33 1028.00 1028.65 1029.05 1029.06 1029.08 1029.24 1029.32 1029.34 1029.22 1028.99 1028.78 1028.52 1028.15 1027.84 1027.57 1027.23 1026.75 1026.18 1025.58 1025.03 1024.58 1024.19 1023.78 1023.22
1030.39 1030.73 1031.06 1031.21 1031.16 1031.24 1031.42 1032.12 1032.84 1033.63 1034.06 1034.64 1034.36 1033.18 1026.83 1025.42 1025.62 1026.21 1026.65 1027.07 1027.72 1028.37 1028.76 1028.77 1029.07 1029.22 1029.24 1029.21 1029.17 1029.04 1028.67 1028.23 1027.98 1027.64 1027.23 1026.84 1026.40 1025.99 1025.40 1024.85 1024.34 1023.73 1023.14 1022.74
1032.34 1031.71 1032.02 1032.12 1032.28 1032.30 1032.66 1033.24 1034.33 1035.58 1036.24 1035.50 1034.86 1031.47 1026.06 1025.40 1025.92 1026.45 1026.89 1027.29 1027.77 1028.15 1028.28 1028.65 1028.91 1028.97 1029.01 1029.11 1029.12 1028.88 1028.57 1028.18 1027.78 1027.38 1026.95 1026.62 1026.28 1025.75 1025.27 1024.70 1024.11 1023.47 1022.87 1022.33
1033.43 1032.81 1032.90 1032.89 1032.91 1033.33 1033.28 1033.80 1034.61 1035.62 1037.57 1036.77 1032.95 1029.75 1026.29 1025.97 1026.24 1026.64 1026.92 1027.32 1027.68 1027.91 1028.22 1028.63 1028.93 1029.12 1029.19 1029.02 1028.76 1028.65 1028.48 1028.16 1027.79 1027.46 1026.91 1026.39 1025.90 1025.43 1024.88 1024.25 1023.68 1023.02 1022.44 1021.77
1034.02 1033.98 1033.40 1033.36 1033.58 1033.91 1033.90 1034.49 1034.91 1035.70 1036.84 1036.15 1032.66 1030.63 1027.72 1026.95 1027.16 1027.24 1027.74 1027.92 1027.69 1027.81 1028.20 1028.55 1028.70 1028.83 1028.89 1028.86 1028.89 1028.65 1028.33 1028.03 1027.62 1027.11 1026.69 1026.20 1025.72 1025.16 1024.49 1023.80 1023.09 1022.48 1021.84 1021.27
1034.03 1034.65 1033.95 1033.77 1033.66 1033.65 1034.37 1035.01 1035.68 1036.23 1036.53 1036.24 1033.48 1028.52 1026.55 1027.30 1027.90 1028.42 1028.37 1028.34 1028.31 1028.48 1028.76 1029.04 1029.27 1029.34 1029.20 1029.05 1028.81 1028.48 1028.19 1027.82 1027.28 1026.85 1026.42 1025.85 1025.23 1024.66 1024.02 1023.31 1022.60 1021.96 1021.29 1020.71
1034.01 1034.77 1035.02 1033.72 1033.65 1033.83 1034.02 1034.36 1034.92 1036.09 1035.95 1035.42 1034.28 1027.24 1026.55 1027.64 1028.58 1029.23 1028.96 1028.84 1028.92 1029.41 1029.57 1029.79 1029.61 1029.49 1029.42 1029.21 1028.99 1028.65 1028.08 1027.66 1027.14 1026.66 1026.12 1025.56 1024.96 1024.36 1023.66 1022.95 1022.26 1021.60 1020.87 1020.15
1033.83 1034.97 1035.39 1033.87 1034.38 1034.15 1034.16 1034.11 1034.39 1034.88 1034.80 1033.92 1033.74 1027.64 1026.36 1027.46 1028.56 1029.18 1029.56 1029.53 1029.72 1029.78 1030.01 1030.03 1029.89 1029.88 1029.71 1029.48 1029.27 1028.74 1028.18 1027.60 1027.08 1026.58 1025.96 1025.31 1024.71 1024.04 1023.29 1022.59 1021.90 1021.18 1020.37 1019.57
1033.78 1034.92 1035.35 1035.36 1034.76 1034.64 1034.39 1033.67 1033.99 1034.37 1034.28 1032.03 1029.47 1025.56 1025.22 1026.18 1027.92 1028.43 1029.22 1029.39 1029.88 1030.25 1030.49 1030.27 1030.19 1030.12 1029.88 1029.61 1029.43 1028.95 1028.34 1027.73 1027.11 1026.55 1025.90 1025.16 1024.47 1023.75 1023.00 1022.26 1021.51 1020.75 1019.91 1018.98
1035.00 1036.20 1036.30 1035.40 1034.66 1034.51 1033.13 1032.55 1033.00 1032.95 1030.70 1031.01 1025.18 1026.99 1024.63 1025.61 1027.60 1028.52 1029.37 1029.91 1030.28 1030.79 1030.72 1030.58 1030.62 1030.29 1030.09 1029.94 1029.42 1028.88 1028.35 1027.83 1027.20 1026.52 1025.86 1025.06 1024.28 1023.56 1022.79 1022.09 1021.28 1020.42 1019.52 1018.45
1036.36 1037.05 1037.80 1036.69 1034.73 1033.92 1032.04 1030.70 1030.64 1030.73 1030.36 1029.46 1027.82 1026.66 1025.35 1026.03 1028.12 1029.26 1029.96 1030.44 1030.90 1031.32 1031.18 1031.15 1030.81 1030.46 1030.23 1029.98 1029.50 1028.97 1028.47 1027.93 1027.37 1026.76 1025.85 1025.02 1024.22 1023.40 1022.76 1022.00 1021.15 1020.36 1019.27 1018.33
1037.46 1038.39 1038.92 1037.26 1035.72 1033.89 1030.68 1027.67 1028.18 1028.68 1028.39 1027.95 1027.41 1025.25 1026.36 1027.22 1028.32 1029.09 1029.87 1030.85 1031.25 1031.38 1031.16 1031.07 1030.99 1030.72 1030.38 1029.93 1029.53 1029.09 1028.49 1027.87 1027.37 1026.67 1025.78 1025.00 1024.26 1023.45 1022.83 1022.19 1021.21 1020.23 1019.21 1018.26
1037.97 1039.08 1039.88 1038.75 1036.18 1032.98 1026.80 1026.06 1026.09 1026.57 1026.26 1026.35 1025.93 1025.17 1026.53 1027.88 1028.40 1029.21 1029.89 1030.51 1031.18 1031.03 1031.10 1030.78 1030.67 1030.40 1029.88 1029.61 1029.41 1029.11 1028.52 1027.95 1027.34 1026.52 1025.77 1025.06 1024.31 1023.80 1022.87 1022.08 1021.16 1020.35 1019.34 1018.25
1037.39 1038.28 1039.45 1039.41 1037.20 1030.98 1025.36 1025.72 1025.88 1026.22 1024.75 1023.71 1024.83 1025.58 1026.64 1027.74 1028.54 1029.37 1030.11 1030.37 1030.42 1030.42 1030.42 1030.58 1030.20 1030.11 1029.88 1029.51 1029.19 1028.99 1028.37 1027.92 1027.27 1026.46 1025.79 1025.05 1024.55 1023.69 1022.79 1021.88 1021.08 1020.11 1018.98 1017.85
1037.56 1037.86 1038.28 1039.23 1037.68 1032.96 1026.07 1025.74 1025.65 1025.83 1024.80 1024.32 1024.79 1025.68 1026.60 1027.60 1028.57 1029.48 1029.90 1030.04 1030.20 1030.19 1030.20 1029.96 1030.04 1030.00 1029.74 1029.39 1029.00 1028.63 1028.26 1027.82 1027.13 1026.55 1025.80 1025.37 1024.64 1023.81 1022.79 1021.99 1020.90 1019.90 1018.91 1017.60
1037.28 1037.61 1037.59 1037.49 1035.97 1030.33 1025.58 1025.55 1025.57 1025.80 1024.91 1024.70 1024.97 1025.88 1026.73 1027.66 1028.73 1029.33 1029.74 1030.06 1030.12 1030.19 1030.22 1030.28 1030.13 1030.01 1029.73 1029.26 1028.86 1028.52 1028.20 1027.73 1027.30 1026.66 1026.15 1025.48 1024.70 1023.78 1022.77 1021.80 1020.90 1019.81 1019.02 1017.79
1033.58 1034.43 1034.96 1035.02 1033.35 1028.06 1024.45 1025.52 1025.14 1023.50 1024.00 1024.40 1025.28 1026.18 1027.02 1027.84 1028.63 1029.23 1029.72 1030.09 1030.30 1030.35 1030.58 1030.50 1030.44 1030.13 1029.79 1029.44 1029.03 1028.53 1028.25 1027.88 1027.42 1026.95 1026.25 1025.53 1024.64 1023.69 1022.61 1021.78 1020.72 1019.97 1018.79 1017.64
1031.06 1028.90 1029.03 1029.22 1025.68 1022.99 1023.41 1022.69 1022.84 1023.31 1023.93 1024.76 1025.66 1026.71 1027.30 1028.06 1029.10 1029.55 1030.00 1030.29 1030.57 1030.80 1030.72 1030.79 1030.57 1030.35 1029.97 1029.59 1029.29 1028.82 1028.56 1028.15 1027.57 1027.02 1026.26 1025.44 1024.55 1023.62 1022.79 1021.75 1020.83 1019.71 1018.72 1017.52
1027.98 1026.89 1026.71 1026.21 1021.15 1022.09 1021.70 1022.41 1022.65 1023.24 1024.10 1025.09 1025.85 1026.87 1027.72 1028.48 1029.17 1029.88 1030.58 1030.87 1030.98 1031.04 1031.03 1031.11 1030.92 1030.52 1030.13 1029.76 1029.47 1029.37 1028.85 1028.40 1027.86 1027.06 1026.23 1025.26 1024.42 1023.52 1022.75 1021.97 1020.98 1019.85 1018.62 1017.38
1025.89 1025.92 1024.71 1023.86 1021.36 1021.29 1021.15 1021.83 1022.49 1023.70 1024.61 1025.66 1026.76 1027.61 1028.61 1029.03 1029.54 1030.12 1030.77 1031.02 1031.21 1031.39 1031.29 1031.13 1031.06 1030.59 1030.09 1029.78 1029.60 1029.38 1028.92 1028.43 1027.86 1027.14 1026.24 1025.27 1024.46 1023.65 1022.62 1021.95 1021.01 1019.68 1018.58 1017.34
1023.62 1022.08 1022.57 1020.31 1019.84 1020.63 1021.05 1021.75 1022.90 1024.11 1025.33 1026.41 1027.14 1028.26 1028.91 1029.56 1030.30 1030.94 1031.23 1031.60 1031.88 1032.11 1031.89 1031.64 1031.37 1030.84 1030.24 1029.93 1029.68 1029.33 1028.96 1028.51 1027.92 1027.07 1026.16 1025.38 1024.57 1023.69 1022.69 1021.57 1020.32 1019.65 1018.44 1017.12
Wind_Speed
7 13 5 3 3 2 1 1 3 4 1 5 5 9 9 7 5 6 5 6 6 6 3 2 3 5 6 8 9 10 10 11 9 7 8 6 8 7 8 7 10 9 11 12
10 7 4 3 3 3 3 1 4 7 2 3 7 20 13 10 7 8 11 8 7 4 4 1 3 5 5 4 5 6 7 8 7 6 5 3 8 4 8 7 10 10 12 12
8 1 3 1 5 2 1 0 2 5 9 1 8 10 3 3 2 4 3 3 3 5 4 2 1 1 3 4 6 6 7 7 6 8 6 6 5 5 5 9 9 11 14 13
6 3 1 1 2 1 3 2 2 4 5 4 5 8 6 1 5 6 6 7 6 6 4 3 3 2 3 4 4 5 6 7 8 7 7 9 7 9 8 9 9 10 13 13
1 2 3 3 1 2 1 2 1 3 3 3 4 3 10 3 6 8 10 9 10 8 7 7 5 4 3 3 4 5 5 6 6 7 7 7 9 8 9 9 12 12 10 12
2 1 1 2 3 1 2 1 4 3 3 4 3 3 7 4 5 3 2 9 11 9 7 7 5 4 4 3 4 5 6 7 7 7 9 9 11 12 11 11 10 9 9 9
5 1 2 3 3 1 6 6 6 8 7 6 1 2 14 3 5 3 5 7 10 7 7 7 6 5 4 5 6 7 7 9 9 10 10 11 12 13 13 14 10 14 10 9
4 8 4 6 3 2 3 5 7 5 4 7 2 8 7 3 2 4 5 6 6 8 8 6 6 5 5 5 6 7 9 10 10 10 12 11 12 8 9 11 11 10 10 11
4 6 2 4 2 3 1 5 3 7 2 4 3 9 12 2 6 5 6 3 8 8 7 6 6 5 5 5 6 7 9 10 11 12 11 11 11 12 12 14 13 10 13 11
2 5 1 3 1 4 4 3 5 4 6 9 6 7 9 7 6 4 7 8 9 7 6 5 4 4 3 4 5 7 8 10 11 11 10 10 12 12 13 12 14 15 13 15
3 5 6 1 2 6 3 3 6 3 4 5 7 9 9 8 5 5 7 8 7 7 4 3 4 5 4 5 5 7 8 10 11 12 12 12 12 13 13 13 14 14 15 14
1 4 4 9 1 2 1 4 4 6 7 4 1 17 1 4 4 3 8 7 6 1 3 4 5 5 5 6 6 8 9 10 11 11 12 13 13 14 14 14 15 15 15 15
5 2 5 13 3 3 3 5 4 3 2 8 2 11 1 2 5 8 9 8 4 4 5 5 4 5 6 7 8 9 10 11 12 12 12 13 14 14 15 15 15 16 16 16
4 3 9 9 10 3 5 6 5 6 3 6 17 31 26 20 7 7 5 7 5 4 4 4 4 5 6 7 8 9 11 11 12 12 13 14 14 15 15 15 16 17 17 16
4 5 3 5 9 5 13 16 9 14 20 10 30 15 28 21 11 5 4 4 4 3 4 3 5 6 7 7 7 10 9 9 11 12 12 13 15 15 15 16 16 17 19 17
2 4 2 8 5 6 13 18 17 18 18 16 26 30 21 16 3 3 4 2 2 2 5 6 7 7 7 7 8 8 9 9 10 10 12 12 14 14 15 16 17 20 19 18
2 3 3 8 4 10 10 12 9 5 5 7 8 13 0 3 3 3 3 2 2 4 4 7 8 7 7 7 6 9 9 9 9 10 10 13 13 15 14 17 19 17 18 18
5 4 2 6 7 1 9 1 4 10 10 13 12 14 3 4 3 2 1 3 1 4 5 7 6 6 6 6 7 7 7 8 9 10 12 12 12 14 17 17 17 17 16 16
1 4 2 2 3 13 9 2 4 4 9 10 13 8 3 1 2 3 3 1 2 3 4 4 4 3 5 7 8 8 10 9 11 13 14 11 15 17 17 17 18 17 16 16
3 4 4 4 2 8 4 1 0 3 7 5 3 3 3 3 3 0 3 2 4 5 5 8 9 9 9 11 12 13 12 12 13 15 13 16 15 16 17 17 17 15 16 15
2 1 5 4 5 14 12 6 4 4 7 3 2 3 4 1 2 3 3 3 3 4 7 7 7 8 10 11 12 13 14 14 15 15 16 16 16 16 16 16 15 15 16 14
9 9 6 3 5 14 9 3 8 3 4 5 4 4 4 6 4 2 2 4 5 6 8 9 9 10 10 11 11 13 14 15 15 15 16 16 16 13 13 16 14 15 14 15
6 11 9 15 14 1 8 5 3 5 5 5 5 4 6 5 2 2 3 5 5 6 8 7 7 10 9 9 11 13 14 14 15 15 15 15 15 14 14 15 14 12 12 11
7 6 6 2 18 21 16 12 6 6 5 6 6 7 5 5 3 1 2 3 4 5 5 5 7 9 11 10 11 10 12 12 13 14 15 13 13 14 13 10 10 10 10 11
6 7 6 11 23 17 12 6 7 6 9 10 6 5 6 5 3 2 1 2 4 5 4 4 6 8 11 10 11 9 10 11 12 13 12 12 11 12 12 11 10 11 12 14
9 11 9 15 7 9 2 3 8 10 8 10 8 4 3 3 4 2 1 1 4 6 6 7 9 10 10 10 11 10 10 11 12 12 10 10 11 10 10 11 11 17 22 24
Wind_Direction
17 64 48 332 333 349 130 180 269 259 41 323 253 272 255 199 185 199 191 187 182 171 158 95 53 33 22 25 19 15 11 5 6 4 358 353 352 335 347 352 345 345 345 342
31 58 327 288 9 72 48 3 290 280 18 350 352 291 262 180 201 188 195 201 193 187 181 101 38 29 27 12 7 7 7 1 6 5 353 331 325 322 324 339 335 339 337 333
92 299 302 171 30 21 40 175 319 260 331 69 324 285 280 222 168 205 213 205 203 202 203 209 348 332 331 358 354 350 351 350 354 355 345 340 324 326 329 336 329 332 329 324
88 321 348 116 98 111 295 78 316 299 23 286 17 282 306 302 258 234 215 211 208 210 212 213 232 287 328 319 321 337 340 346 352 341 346 351 336 326 322 315 315 318 320 319
261 6 17 59 343 81 294 339 278 79 104 15 349 69 272 14 285 245 218 209 213 212 208 218 223 235 263 307 315 323 322 318 321 333 337 331 323 314 312 307 313 314 313 314
111 133 52 349 313 214 19 64 44 67 104 21 243 106 279 237 212 280 257 209 206 211 219 228 230 243 267 300 318 325 331 333 332 326 318 314 316 317 317 319 315 311 311 311
343 80 59 11 334 89 38 42 340 354 5 233 42 8 250 280 232 231 274 238 208 204 217 228 232 245 272 311 334 340 335 326 324 322 322 321 318 315 315 316 311 314 314 313
75 333 16 349 76 206 47 121 142 275 284 281 17 242 257 192 281 266 279 272 199 209 226 228 238 251 272 307 326 326 328 322 324 325 322 315 309 310 308 305 307 305 307 304
38 294 22 30 6 65 311 41 143 95 93 28 262 290 288 265 278 260 258 224 228 226 227 236 258 271 286 287 307 320 323 323 323 321 314 313 306 304 304 303 300 299 300 301
193 334 300 284 63 36 103 164 32 9 337 310 278 269 248 298 283 273 255 252 246 234 236 248 275 298 303 310 312 316 320 316 311 313 314 312 307 302 300 301 299 299 298 300
125 95 288 52 194 181 22 12 44 116 140 207 294 251 210 225 227 225 263 262 269 248 237 285 318 323 322 323 319 316 318 319 320 320 315 310 309 309 305 302 302 299 299 298
189 131 273 235 80 7 314 203 155 125 263 234 195 277 70 222 235 237 276 285 297 281 284 317 324 327 334 321 319 323 322 320 321 315 312 313 314 315 311 308 308 304 299 297
168 314 352 336 33 10 203 209 158 122 80 203 165 266 288 299 286 245 256 282 295 286 325 343 346 338 325 327 323 316 318 318 316 314 316 318 317 316 313 310 311 309 302 300
152 176 178 207 219 162 246 213 194 138 181 243 229 277 278 281 265 275 263 266 291 270 310 306 323 318 319 317 312 314 310 312 314 317 319 318 319 318 314 312 314 313 307 302
124 215 224 257 250 209 255 256 196 201 233 210 273 259 275 290 286 274 274 298 344 350 334 330 319 308 305 304 296 302 296 307 318 317 316 315 318 316 313 316 315 316 311 302
11 260 103 281 293 253 265 249 236 233 254 257 261 276 275 287 342 299 273 280 319 310 298 319 304 299 295 293 295 304 309 305 313 307 312 311 318 316 316 315 319 316 308 308
150 129 42 268 333 313 297 226 181 191 221 165 209 245 75 307 319 256 280 172 240 257 279 299 297 296 293 291 296 313 315 313 309 307 305 314 315 314 322 317 312 310 312 311
130 87 74 274 344 13 248 211 184 190 243 208 273 270 182 231 251 285 188 160 286 282 288 299 291 302 311 318 316 311 310 310 309 309 310 318 320 319 316 314 312 313 310 308
95 126 290 257 223 292 285 161 139 184 269 234 227 287 269 220 236 84 113 94 258 279 289 283 273 292 310 327 326 321 321 317 320 317 325 325 323 319 315 316 316 312 311 309
53 67 136 68 187 262 248 99 144 177 284 37 156 177 196 192 341 214 29 9 359 358 350 339 344 334 334 338 335 328 326 325 322 330 327 324 319 317 315 316 314 317 308 322
141 184 213 165 257 278 258 185 188 64 283 234 147 172 161 171 110 127 19 8 4 349 345 352 336 332 335 335 334 326 327 325 328 327 323 321 319 317 316 314 321 314 326 317
178 160 199 128 220 273 157 96 192 196 180 177 159 160 133 114 110 63 30 354 0 348 346 346 337 331 333 333 332 324 327 329 326 326 321 321 319 320 320 321 323 326 324 323
260 197 180 188 221 118 205 230 176 186 170 186 150 129 125 125 106 31 343 357 350 341 335 332 328 323 327 330 332 324 326 326 325 323 320 320 321 322 323 327 325 323 324 322
247 179 233 117 250 246 252 231 195 176 163 131 120 133 124 134 144 134 343 347 330 320 321 326 320 321 318 329 326 320 322 326 323 320 320 321 326 323 324 322 322 317 319 315
198 149 192 259 281 274 251 224 172 132 119 113 97 121 132 139 120 91 16 310 309 310 318 319 305 309 314 322 323 322 322 325 324 321 320 324 323 323 319 321 318 320 314 313
182 206 192 246 242 226 206 143 141 141 145 141 133 125 113 102 109 100 319 296 307 315 321 320 317 314 318 325 321 322 325 328 324 322 326 323 323 320 319 319 318 318 322 327